EW6020 Weather Reports


time (UTC)temp
C
wind
direction
speed
KPH
gust
KPH
rain 1hr
cm
rain 24hr
cm
rain mn
cm
humidity
%
barometer
mb
20260504213002 20 150 12.9 20.9 0.00 0.00 0.00 68 1009.9
20260504211503 20 150 9.7 20.9 0.00 0.00 0.00 70 1010.1
20260504210106 19 149 6.4 16.1 0.00 0.00 0.00 71 1010.4
20260504204616 19 150 3.2 14.5 0.00 0.00 0.00 73 1010.5
20260504203129 18 150 6.4 16.1 0.00 0.00 0.00 72 1010.7
20260504201556 18 150 8.0 16.1 0.00 0.00 0.00 72 1010.8
20260504200055 17 148 4.8 12.9 0.00 0.00 0.00 75 1010.9
20260504194554 17 150 3.2 16.1 0.00 0.00 0.00 75 1011.0
20260504193054 16 150 4.8 16.1 0.00 0.00 0.00 77 1011.1
20260504191556 16 151 4.8 17.7 0.00 0.00 0.00 78 1011.2
20260504190055 15 178 3.2 11.3 0.00 0.00 0.00 79 1011.3
20260504184551 15 173 8.0 16.1 0.00 0.00 0.00 81 1011.3
20260504183051 15 179 6.4 14.5 0.00 0.00 0.00 81 1011.4
20260504181549 15 180 4.8 11.3 0.00 0.00 0.00 81 1011.4
20260504180053 14 172 1.6 8.0 0.00 0.00 0.00 82 1011.4
20260504174547 13 179 3.2 8.0 0.00 0.00 0.00 84 1011.4
20260504173058 13 178 6.4 11.3 0.00 0.00 0.00 86 1011.4
20260504171545 13 148 4.8 6.4 0.00 0.00 0.00 87 1011.4
20260504081507 15 179 6.4 9.7 0.00 0.00 0.00 75 1006.5
20260504044543 25 178 1.6 6.4 0.00 0.00 0.00 40 1005.4
20260504043048 26 178 1.6 6.4 0.00 0.00 0.00 37 1005.4
20260504041544 26 177 3.2 11.3 0.00 0.00 0.00 36 1005.3
20260504040045 26 178 1.6 8.0 0.00 0.00 0.00 34 1005.1
20260504034547 25 178 1.6 4.8 0.00 0.00 0.00 35 1004.9
20260504033039 26 177 0.0 0.0 0.00 0.00 0.00 38 1004.8
20260504031542 26 176 0.0 3.2 0.00 0.00 0.00 38 1004.7
20260504030039 28 178 0.0 0.0 0.00 0.00 0.00 33 1004.6
20260504024545 30 177 0.0 0.0 0.00 0.00 0.00 29 1004.4
20260504023037 31 178 0.0 1.6 0.00 0.00 0.00 25 1004.4
20260504021539 30 177 0.0 4.8 0.00 0.00 0.00 25 1004.4
20260504020038 31 176 3.2 4.8 0.00 0.00 0.00 24 1004.5
20260504014537 31 178 0.0 4.8 0.00 0.00 0.00 25 1004.5
20260504013039 31 178 3.2 9.7 0.00 0.00 0.00 22 1004.6
20260504011529 31 178 0.0 11.3 0.00 0.00 0.00 23 1004.8
20260504010027 30 177 8.0 12.9 0.00 0.00 0.00 23 1004.9
20260504004527 31 177 6.4 16.1 0.00 0.00 0.00 21 1005.1
20260504003023 30 178 12.9 20.9 0.00 0.00 0.00 21 1005.2
20260504001530 30 176 12.9 20.9 0.00 0.00 0.00 22 1005.2
20260504000022 30 177 9.7 22.5 0.00 0.00 0.00 26 1005.1
20260503234518 30 177 14.5 22.5 0.00 0.00 0.00 23 1005.4
20260503233019 30 177 12.9 27.4 0.00 0.00 0.00 31 1005.5
20260503231515 30 176 14.5 19.3 0.00 0.00 0.00 27 1005.7
20260503230031 30 176 14.5 20.9 0.00 0.00 0.00 27 1005.9
20260503224513 31 176 9.7 16.1 0.00 0.00 0.00 28 1006.1
20260503223008 31 177 6.4 11.3 0.00 0.00 0.00 32 1006.3
20260503221507 31 176 9.7 14.5 0.00 0.00 0.00 28 1006.6
20260503220003 31 156 0.0 12.9 0.00 0.00 0.00 28 1006.8
20260503214559 30 177 9.7 17.7 0.00 0.00 0.00 29 1007.0